This demonstration page uses our WeatherBlox Daily Observations layout. Learn more.

Left ArrowRight Arrow

Hourly Observations for July 12, 2016

Temp ( °F °C ) Dew Point ( °F °C ) Humidity (%) Winds ( mph kmh ) Pressure ( in mb ) Visibility ( mi km ) Precip ( " mm )
12:53 am 00:53 Clear 73 22.8 59 15 62 62 NW 14 22 29.70 1006 10 16 0.00 0.00
1:53 am 01:53 Clear 69 20.6 55 12.8 61 61 N 7 11 29.74 1007 10 16 0.00 0.00
2:53 am 02:53 Clear 69 20.6 49 9.4 49 49 N 17 28 29.74 1007 10 16 0.00 0.00
3:53 am 03:53 Clear 67 19.4 48 8.9 51 51 N 13 20 29.78 1009 10 16 0.00 0.00
4:53 am 04:53 Clear 64 17.8 49 9.4 58 58 N 8 13 29.80 1009 10 16 0.00 0.00
5:53 am 05:53 Clear 62 16.7 50 10 65 65 NNE 8 13 29.83 1010 10 16 0.00 0.00
6:53 am 06:53 Sunny 61 16.1 52 11.1 72 72 ENE 3 6 29.86 1011 10 16 0.00 0.00
7:53 am 07:53 Sunny 63 17.2 53 11.7 70 70 NE 3 6 29.87 1012 8 13 0.00 0.00
8:53 am 08:53 Sunny 69 20.6 55 12.8 61 61 NE 6 9 29.88 1012 10 16 0.00 0.00
9:53 am 09:53 Sunny 74 23.3 54 12.2 50 50 E 10 17 29.89 1012 10 16 0.00 0.00
10:53 am 10:53 Sunny 77 25 55 12.8 47 47 ESE 8 13 29.90 1013 10 16 0.00 0.00
11:53 am 11:53 Sunny 80 26.7 57 13.9 45 45 ENE 9 15 29.88 1012 10 16 0.00 0.00
12:53 pm 12:53 Sunny 82 27.8 58 14.4 44 44 ESE 3 6 29.88 1012 10 16 0.00 0.00
1:53 pm 13:53 Sunny 83 28.3 60 15.6 46 46 SE 6 9 29.86 1011 10 16 0.00 0.00
2:53 pm 14:53 Sunny 85 29.4 62 16.7 46 46 undefined N/A 29.84 1011 10 16 0.00 0.00
3:53 pm 15:53 Sunny 87 30.6 63 17.2 45 45 VRB 6 9 29.83 1010 10 16 0.00 0.00
4:53 pm 16:53 Sunny 87 30.6 62 16.7 43 43 ESE 5 7 29.83 1010 10 16 0.00 0.00
5:53 pm 17:53 Sunny 87 30.6 62 16.7 43 43 SE 6 9 29.80 1009 10 16 0.00 0.00
6:53 pm 18:53 Sunny 86 30 65 18.3 49 49 SSE 9 15 29.80 1009 10 16 0.00 0.00
7:53 pm 19:53 Sunny 83 28.3 65 18.3 55 55 SE 9 15 29.80 1009 10 16 0.00 0.00
8:53 pm 20:53 Sunny 81 27.2 68 20 65 65 SSE 8 13 29.80 1009 10 16 0.00 0.00
9:53 pm 21:53 Clear 78 25.6 69 20.6 74 74 SSE 9 15 29.82 1010 10 16 0.00 0.00
10:53 pm 22:53 Clear 77 25 69 20.6 77 77 SSE 9 15 29.84 1011 10 16 0.00 0.00
11:53 pm 23:53 Clear 74 23.3 69 20.6 85 85 SSE 9 15 29.84 1011 10 16 0.00 0.00

Powered by AerisWeather